Flight Track Log - Related Links

Times and Time Zones

All times are in EDT time to prevent confusion due to time zone crossing. See the N53NW flight status page for this flight to view local times or setup timezone preferences in your user account.

Time Position Orientation Groundspeed Altitude Reporting Facility
EDT Latitude Longitude Course Direction KTS MPH feet Rate Location/Type
Wed 06:51:51 AM 39.8628 -83.1358 92° East 204 235 2,400  Level Indianapolis Center
Wed 06:52:31 AM 39.8611 -83.0744 92° East 266 306 3,700 2,495 Climbing Indianapolis Center
Wed 06:53:32 AM 39.8756 -82.9806 79° East 265 305 6,600 2,777 Climbing Indianapolis Center
Wed 06:54:32 AM 39.8897 -82.8767 80° East 288 331 9,300 2,628 Climbing Indianapolis Center
Wed 06:55:33 AM 39.9183 -82.7692 71° East 311 358 11,900 2,607 Climbing Indianapolis Center
Wed 06:56:34 AM 39.9464 -82.6575 72° East 319 367 14,600 2,459 Climbing Indianapolis Center
Wed 06:57:35 AM 39.9736 -82.5444 73° East 323 372 16,900 1,131 Climbing Indianapolis Center
Wed 06:58:36 AM 40.0056 -82.4172 72° East 361 415 16,900 49 Level Indianapolis Center
Wed 06:59:37 AM 40.0364 -82.2842 73° East 380 437 17,000 49 Climbing Indianapolis Center
Wed 07:00:38 AM 40.0686 -82.1533 72° East 375 432 17,000  Level Indianapolis Center
Wed 07:01:39 AM 40.1000 -82.0222 73° East 375 432 17,000  Level Indianapolis Center
Wed 07:02:40 AM 40.1311 -81.8903 73° East 376 433 17,000  Level Indianapolis Center
Wed 07:03:41 AM 40.1617 -81.7614 73° East 380 437 17,000  Level Indianapolis Center
Wed 07:04:42 AM 40.1928 -81.6306 73° East 377 434 17,000  Level Indianapolis Center
Wed 07:05:43 AM 40.2222 -81.4969 74° East 380 437 17,000  Level Indianapolis Center
Wed 07:06:44 AM 40.1958 -81.3700 105° East 368 423 17,000  Level Indianapolis Center
Wed 07:07:45 AM 40.1564 -81.2525 114° Southeast 354 407 17,000 -393 Level Indianapolis Center
Wed 07:08:46 AM 40.1181 -81.1336 113° Southeast 353 406 16,200 -1,279 Descending Indianapolis Center
Wed 07:09:47 AM 40.0736 -80.9956 113° Southeast 352 405 14,400 -1,623 Descending Indianapolis Center
Wed 07:10:48 AM 40.0361 -80.8819 113° Southeast 341 392 12,900 -1,475 Descending Indianapolis Center
Wed 07:11:49 AM 40.0647 -80.7792 70° East 339 390 11,400 -1,370 Descending Indianapolis Center
Wed 07:12:55 AM 40.1589 -80.7217 25° Northeast 267 307 10,000 -667 Descending Cleveland Center
Wed 07:13:55 AM 40.2444 -80.6756 22° Northeast 290 334 10,000  Level Cleveland Center

Login

Don't have an account? Register now (free) for customized features, flight alerts, and more!